Weather Roundup
Issued by NWS

Home | Current Version | Previous Version | Graphics & Text | Print | Product List | Glossary Off
Versions: 1 2 3 4 5 6 7 8 9 10 11 12 13 14 15 16 17 18 19 20 21 22 23 24 25 26 27 28 29 30 31 32 33 34 35 36 37 38 39 40 41 42 43 44 45 46 47 48 49 50

000
NZUS93 KARX 300410
HRRWXR

CURRENT HOURLY OBSERVATIONS ACROSS
MUCH OF THE UPPER MISSISSIPPI VALLEY
NATIONAL WEATHER SERVICE LA CROSSE WI
1100 PM CDT SAT AUG 29 2015


...SOUTHEAST MINNESOTA...


CITY           SKY/WX    TMP DP  RH WIND       PRES   REMARKS
ROCHESTER      PTCLDY    60  59  96 S6        30.07R FOG
ROCHESTER/MAYO FAIR      64  64 100 SE6       30.06S
WINONA         CLEAR     61  59  94 CALM      30.06R
AUSTIN         CLOUDY    66  63  88 CALM      30.06S
ALBERT LEA     FOG       63  63 100 CALM      30.05F VSB 1/2
DODGE CENTER   CLEAR     61  59  94 S6        30.06S
PRESTON        CLEAR     60  58  94 CALM      30.07R
OWATONNA       CLEAR     63  61  94 S3        30.04F FOG
FARIBAULT      CLEAR     63  61  94 S3        30.04S FOG
$$

...ELSEWHERE IN MINNESOTA...


CITY           SKY/WX    TMP DP  RH WIND       PRES   REMARKS
MINNEAPOLIS    MOCLDY    68  63  84 S5        30.01F
INTNL FALLS    MOCLDY    67  64  90 VRB5      29.90F
DULUTH         PTCLDY    65  61  87 SW10      29.98F
RED WING       CLEAR     64  63  94 SE6       30.02F
REDWOOD FALLS  CLEAR     64  62  93 S9        29.99F
MANKATO        CLEAR     63  59  88 S7        30.03S
WORTHINGTON    CLEAR     63  59  88 S9        30.03S
FAIRMONT       CLEAR     59  54  82 S6        30.04S
$$

...SOUTHWEST WISCONSIN...


CITY           SKY/WX    TMP DP  RH WIND       PRES   REMARKS
LA CROSSE      CLEAR     64  61  90 E5        30.04S
PRAIRIE DU CHI CLOUDY    65  62  89 CALM      30.05S
BOSCOBEL       CLOUDY    67  64  90 CALM      30.06S
LONE ROCK      CLOUDY    66  63  90 CALM      30.06F
PLATTEVILLE    CLOUDY    66  64  94 E3        30.07S
FORT MC COY    CLOUDY    64  62  91 CALM      30.07S
CAMP DOUGLAS   CLOUDY    65  65 100 CALM      30.06S
VIROQUA          N/A     63  63  98 CALM      30.07S
WIS DELLS      CLOUDY    64  61  89 CALM      30.06S
$$

...ELSEWHERE IN WISCONSIN...


CITY           SKY/WX    TMP DP  RH WIND       PRES   REMARKS
MILWAUKEE      CLOUDY    63  62  97 N5        30.05S FOG
MADISON        CLOUDY    65  62  90 CALM      30.05S
GREEN BAY      PTCLDY    61  59  93 S3        30.05F FOG
EAU CLAIRE     CLEAR     63  60  90 S7        30.04S
BLACK RVR FLS  FOG       59  59 100 CALM      30.05S VSB 3/4
MEDFORD        CLEAR     56  56 100 S5        30.06S FOG
WAUSAU         PTCLDY    59  58  96 CALM      30.05S FOG
WIS RAPIDS     CLOUDY    63  59  87 CALM      30.08S
MARSHFIELD     CLEAR     60  55  83 CALM      30.06F
RICE LAKE      CLEAR     60  58  92 S3        30.04S
$$

...NORTHEAST IOWA...


CITY           SKY/WX    TMP DP  RH WIND       PRES   REMARKS
DECORAH        CLOUDY    64  63  94 SE3       30.05F
MASON CITY     CLOUDY    62  61  96 CALM      30.07S
CHARLES CITY   CLEAR     63  63 100 S5        30.06S
OELWEIN        CLOUDY    64  63  94 SE5       30.07S
$$

...ELSEWHERE IN IOWA...


CITY           SKY/WX    TMP DP  RH WIND       PRES   REMARKS
DES MOINES     MOCLDY    68  62  81 SE3       30.04F
IOWA CITY      CLEAR     67  65  93 CALM      30.04F
FORT DODGE     CLOUDY    64  61  88 CALM      30.06F
$$

...NORTHERN ILLINOIS...


CITY           SKY/WX    TMP DP  RH WIND       PRES   REMARKS
CHICAGO-OHARE  CLOUDY    67  65  93 N6        30.03S FOG
CHICAGO-MIDWAY CLOUDY    69  65  86 N3        30.03S FOG
MOLINE         FOG       61  60  97 SE3       30.03F VSB 1/4
ROCKFORD       CLOUDY    67  63  87 NE5       30.06S
PEORIA         CLOUDY    75  68  78 N3        30.03S
$$

NOTE: "FAIR" INDICATES FEW OR NO CLOUDS BELOW 12,000 FEET WITH NO
SIGNIFICANT WEATHER AND/OR OBSTRUCTIONS TO VISIBILITY. WIND
SPEEDS ARE IN MILES-PER-HOUR.



USA.gov is the U.S. government's official web portal to all federal, state and local government web resources and services.